When you browse on this site, cookies collect data to enhance your experience and personalize the content and advertising you see.
Visit our Privacy Policy to learn more. By continuing to use the site, you agree to this use of cookies and data.
  • In Czech Republic
  • List of Countries
  • For 7 days
  • Water Temperature
  • Weather Map
  • Weather Widgets
  • user-avatar
    Login

    Hourly Weather Townsville

    Today, 18 August, Sunday

    Time Temperature Precipitation Wind Pressure Humidity
    00:00 +18°C° 0 mm 2 mps 757 mmHg 93%
    01:00 +18°C° 0 mm 2 mps 757 mmHg 93%
    02:00 +18°C° 0 mm 2 mps 757 mmHg 93%
    03:00 +17°C° 0 mm 2 mps 756 mmHg 94%
    04:00 +18°C° 0 mm 2 mps 756 mmHg 94%
    05:00 +17°C° 0 mm 2 mps 757 mmHg 95%
    06:00 +17°C° 0 mm 2 mps 757 mmHg 95%
    07:00 +17°C° 0 mm 2 mps 757 mmHg 95%
    08:00 +20°C° 0 mm 2 mps 758 mmHg 82%
    09:00 +24°C° 0 mm 2 mps 758 mmHg 69%
    10:00 +26°C° 0 mm 2 mps 758 mmHg 54%
    11:00 +27°C° 0 mm 2 mps 757 mmHg 51%
    12:00 +27°C° 0 mm 3 mps 757 mmHg 48%
    13:00 +28°C° 0 mm 3 mps 756 mmHg 45%
    14:00 +27°C° 0 mm 3 mps 755 mmHg 48%
    15:00 +26°C° 0 mm 3 mps 755 mmHg 50%
    16:00 +26°C° 0 mm 3 mps 754 mmHg 51%
    17:00 +24°C° 0 mm 3 mps 755 mmHg 61%
    18:00 +21°C° 0 mm 2 mps 755 mmHg 71%
    19:00 +19°C° 0 mm 2 mps 755 mmHg 80%
    20:00 +19°C° 0 mm 2 mps 756 mmHg 82%
    21:00 +18°C° 0 mm 2 mps 756 mmHg 84%
    22:00 +19°C° 0 mm 1 mps 757 mmHg 84%
    23:00 +18°C° 0 mm 1 mps 757 mmHg 85%

    Tomorrow, 19 August, Monday

    Time Temperature Precipitation Wind Pressure Humidity
    00:00 +18°C° 0 mm 1 mps 756 mmHg 85%
    01:00 +17°C° 0 mm 2 mps 756 mmHg 85%
    02:00 +17°C° 0 mm 2 mps 756 mmHg 86%
    03:00 +17°C° 0 mm 2 mps 756 mmHg 86%
    04:00 +16°C° 0 mm 2 mps 755 mmHg 87%
    05:00 +16°C° 0 mm 1 mps 756 mmHg 86%
    06:00 +18°C° 0 mm 1 mps 756 mmHg 86%
    07:00 +18°C° 0 mm 1 mps 756 mmHg 86%
    08:00 +20°C° 0 mm 1 mps 757 mmHg 75%
    09:00 +23°C° 0 mm 2 mps 757 mmHg 63%
    10:00 +25°C° 0 mm 2 mps 757 mmHg 52%
    11:00 +26°C° 0 mm 2 mps 756 mmHg 49%
    12:00 +27°C° 0 mm 2 mps 756 mmHg 46%
    13:00 +28°C° 0 mm 3 mps 755 mmHg 43%
    14:00 +28°C° 0 mm 3 mps 755 mmHg 45%
    15:00 +27°C° 0 mm 3 mps 755 mmHg 46%
    16:00 +27°C° 0 mm 2 mps 754 mmHg 48%
    17:00 +24°C° 0 mm 2 mps 755 mmHg 58%
    18:00 +22°C° 0 mm 1 mps 755 mmHg 67%
    19:00 +20°C° 0 mm 1 mps 756 mmHg 77%
    20:00 +20°C° 0 mm 1 mps 756 mmHg 78%
    21:00 +19°C° 0 mm 1 mps 757 mmHg 80%
    22:00 +19°C° 0 mm 1 mps 757 mmHg 82%
    23:00 +17°C° 0 mm 2 mps 757 mmHg 81%

    Day after tomorrow, 20 August, Tuesday

    Time Temperature Precipitation Wind Pressure Humidity
    00:00 +17°C° 0 mm 2 mps 757 mmHg 81%
    01:00 +17°C° 0 mm 2 mps 757 mmHg 80%
    02:00 +17°C° 0 mm 2 mps 757 mmHg 78%
    03:00 +17°C° 0 mm 2 mps 757 mmHg 76%
    04:00 +17°C° 0 mm 2 mps 757 mmHg 74%
    05:00 +16°C° 0 mm 2 mps 757 mmHg 66%
    06:00 +16°C° 0 mm 3 mps 758 mmHg 58%
    07:00 +16°C° 0 mm 3 mps 758 mmHg 50%
    08:00 +18°C° 0 mm 3 mps 758 mmHg 47%
    09:00 +21°C° 0 mm 3 mps 759 mmHg 44%
    10:00 +24°C° 0 mm 3 mps 759 mmHg 41%
    11:00 +25°C° 0 mm 4 mps 758 mmHg 41%
    12:00 +26°C° 0 mm 5 mps 758 mmHg 41%
    13:00 +27°C° 0 mm 6 mps 757 mmHg 41%
    14:00 +26°C° 0 mm 6 mps 757 mmHg 44%
    15:00 +25°C° 0 mm 5 mps 757 mmHg 48%
    16:00 +23°C° 0 mm 5 mps 756 mmHg 51%
    17:00 +21°C° 0 mm 4 mps 757 mmHg 59%
    18:00 +19°C° 0 mm 4 mps 757 mmHg 67%
    19:00 +17°C° 0 mm 3 mps 758 mmHg 75%
    20:00 +17°C° 0 mm 3 mps 758 mmHg 77%
    21:00 +16°C° 0 mm 3 mps 759 mmHg 78%
    22:00 +16°C° 0 mm 3 mps 759 mmHg 80%
    23:00 +14°C° 0 mm 3 mps 759 mmHg 80%

    21 August, Wednesday

    Time Temperature Precipitation Wind Pressure Humidity
    00:00 +14°C° 0 mm 3 mps 759 mmHg 80%
    01:00 +14°C° 0 mm 3 mps 759 mmHg 80%
    02:00 +13°C° 0 mm 3 mps 758 mmHg 74%
    03:00 +12°C° 0 mm 3 mps 758 mmHg 67%
    04:00 +12°C° 0 mm 3 mps 758 mmHg 61%
    05:00 +12°C° 0 mm 3 mps 758 mmHg 56%
    06:00 +12°C° 0 mm 3 mps 758 mmHg 51%
    07:00 +11°C° 0 mm 3 mps 759 mmHg 46%
    08:00 +14°C° 0 mm 3 mps 759 mmHg 44%
    09:00 +18°C° 0 mm 4 mps 759 mmHg 42%
    10:00 +22°C° 0 mm 4 mps 759 mmHg 40%
    11:00 +23°C° 0 mm 4 mps 758 mmHg 38%
    12:00 +25°C° 0 mm 4 mps 758 mmHg 36%
    13:00 +26°C° 0 mm 4 mps 757 mmHg 34%
    14:00 +26°C° 0 mm 4 mps 757 mmHg 36%
    15:00 +25°C° 0 mm 4 mps 756 mmHg 39%
    16:00 +25°C° 0 mm 4 mps 756 mmHg 42%
    17:00 +21°C° 0 mm 4 mps 756 mmHg 55%
    18:00 +19°C° 0 mm 3 mps 757 mmHg 68%
    19:00 +17°C° 0 mm 2 mps 757 mmHg 81%
    20:00 +16°C° 0 mm 2 mps 757 mmHg 83%
    21:00 +16°C° 0 mm 2 mps 758 mmHg 84%
    22:00 +15°C° 0 mm 2 mps 758 mmHg 86%
    23:00 +15°C° 0 mm 2 mps 758 mmHg 87%

    22 August, Thursday

    Time Temperature Precipitation Wind Pressure Humidity
    00:00 +15°C° 0 mm 2 mps 758 mmHg 88%
    01:00 +14°C° 0 mm 2 mps 757 mmHg 89%
    02:00 +14°C° 0 mm 2 mps 757 mmHg 89%
    03:00 +14°C° 0 mm 2 mps 757 mmHg 88%
    04:00 +14°C° 0 mm 2 mps 757 mmHg 87%
    05:00 +14°C° 0 mm 2 mps 757 mmHg 83%
    06:00 +13°C° 0 mm 2 mps 758 mmHg 79%
    07:00 +13°C° 0 mm 2 mps 758 mmHg 75%
    08:00 +16°C° 0 mm 2 mps 758 mmHg 59%
    09:00 +19°C° 0 mm 2 mps 758 mmHg 43%
    10:00 +23°C° 0 mm 2 mps 758 mmHg 27%
    11:00 +24°C° 0 mm 3 mps 758 mmHg 26%
    12:00 +25°C° 0 mm 4 mps 757 mmHg 25%
    13:00 +26°C° 0 mm 4 mps 756 mmHg 24%
    14:00 +25°C° 0 mm 4 mps 756 mmHg 27%
    15:00 +25°C° 0 mm 3 mps 756 mmHg 30%
    16:00 +24°C° 0 mm 3 mps 755 mmHg 33%
    17:00 +21°C° 0 mm 2 mps 756 mmHg 41%
    18:00 +18°C° 0 mm 2 mps 756 mmHg 50%
    19:00 +16°C° 0 mm 1 mps 757 mmHg 59%
    20:00 +16°C° 0 mm 1 mps 757 mmHg 61%
    21:00 +15°C° 0 mm 1 mps 757 mmHg 64%
    22:00 +15°C° 0 mm 1 mps 758 mmHg 66%
    23:00 +14°C° 0 mm 1 mps 757 mmHg 68%

    23 August, Friday

    Time Temperature Precipitation Wind Pressure Humidity
    00:00 +14°C° 0 mm 1 mps 757 mmHg 70%
    01:00 +14°C° 0 mm 2 mps 757 mmHg 71%
    02:00 +14°C° 0 mm 2 mps 757 mmHg 73%
    03:00 +14°C° 0 mm 2 mps 757 mmHg 74%
    04:00 +14°C° 0 mm 2 mps 757 mmHg 76%
    05:00 +14°C° 0 mm 2 mps 757 mmHg 76%
    06:00 +14°C° 0 mm 2 mps 757 mmHg 76%
    07:00 +14°C° 0 mm 2 mps 758 mmHg 76%
    08:00 +17°C° 0 mm 2 mps 758 mmHg 63%
    09:00 +20°C° 0 mm 3 mps 758 mmHg 49%
    10:00 +24°C° 0 mm 3 mps 759 mmHg 36%
    11:00 +23°C° 0 mm 4 mps 758 mmHg 35%
    12:00 +25°C° 0 mm 4 mps 757 mmHg 34%
    13:00 +26°C° 0 mm 5 mps 756 mmHg 33%
    14:00 +25°C° 0 mm 5 mps 756 mmHg 37%
    15:00 +23°C° 0 mm 5 mps 756 mmHg 40%
    16:00 +23°C° 0 mm 4 mps 755 mmHg 44%
    17:00 +21°C° 0 mm 4 mps 756 mmHg 55%
    18:00 +19°C° 0 mm 3 mps 756 mmHg 67%
    19:00 +17°C° 0 mm 3 mps 757 mmHg 78%
    20:00 +16°C° 0 mm 3 mps 757 mmHg 81%
    21:00 +16°C° 0 mm 3 mps 758 mmHg 85%
    22:00 +16°C° 0 mm 3 mps 758 mmHg 88%
    23:00 +16°C° 0 mm 3 mps 758 mmHg 87%
    Show more